Back to catalog

KUIPER-00405

AliveCommunicationsLEO
NORAD 68923·PAYLOAD·🇺🇸 United States

Launched Apr 30, 2026 from Guiana Space Centre

Loading…

Next Passes (next 24 hours)

TLE

FreshSource: CelesTrak SupGP

Epoch: Sep 14, 2026, 22:21 UTC

1 68923C 26098E   26257.93128472  .00004689  00000+0  61393-3 0  2579
2 68923  51.9022  23.8224 0000954 185.4032 172.0743 14.79915825    17

Track KUIPER-00405 in real time with AllMySat

Download on the App Store